CFG9DV EDDF-LEPA

Flight info

Callsign CFG9DV
Flight time 1h 50m
Altitude 35000
Route ANEKI2L/18 ANEKI Y163 HERBI Y164 MOPAN DCT LUTIX DCT BENOT DCT NEMOS DCT GEVEA DCT INCUS DCT BALSI DCT RETNO DCT TUPOX DCT MTG DCT DIVKO DCT VATIR/N0451F370 DCT PIVUS N852 VERSO L129 LUNIK
Aircraft A321/M-SDE3FGHIRWY/LB1

Departure

Time 2026-05-08 07:41
Airport Frankfurt Main Airport (EDDF)

Arrival

Time 2026-05-08 09:32
Airport Palma de Mallorca Airport (LEPA)
Time Latitude Longitude Altitude Speed Heading
2026-05-08 07:12 50.04898 8.58797 365 ft 0 kts 160°
2026-05-08 07:29 50.04905 8.58793 366 ft 4 kts 160°
2026-05-08 07:29 50.04930 8.58779 363 ft 3 kts 160°
2026-05-08 07:29 50.04951 8.58769 363 ft 4 kts 180°
2026-05-08 07:30 50.04973 8.58779 365 ft 4 kts 231°
2026-05-08 07:30 50.04984 8.58812 365 ft 4 kts 250°
2026-05-08 07:30 50.04990 8.58838 363 ft 0 kts 250°
2026-05-08 07:32 50.04990 8.58837 363 ft 1 kts 250°
2026-05-08 07:32 50.04985 8.58815 365 ft 4 kts 250°
2026-05-08 07:33 50.04970 8.58751 362 ft 9 kts 250°
2026-05-08 07:33 50.04940 8.58624 361 ft 16 kts 250°
2026-05-08 07:33 50.04895 8.58434 364 ft 21 kts 249°
2026-05-08 07:33 50.04845 8.58227 364 ft 19 kts 250°
2026-05-08 07:34 50.04802 8.58051 358 ft 16 kts 249°
2026-05-08 07:34 50.04731 8.57955 359 ft 13 kts 185°
2026-05-08 07:34 50.04642 8.57997 361 ft 13 kts 159°
2026-05-08 07:34 50.04556 8.58016 364 ft 12 kts 206°
2026-05-08 07:35 50.04514 8.57896 368 ft 15 kts 250°
2026-05-08 07:35 50.04472 8.57723 366 ft 19 kts 250°
2026-05-08 07:35 50.04419 8.57499 362 ft 26 kts 250°
2026-05-08 07:35 50.04350 8.57208 364 ft 31 kts 249°
2026-05-08 07:36 50.04277 8.56904 362 ft 28 kts 249°
2026-05-08 07:36 50.04212 8.56632 358 ft 26 kts 249°
2026-05-08 07:36 50.04153 8.56383 361 ft 23 kts 250°
2026-05-08 07:36 50.04100 8.56163 355 ft 20 kts 250°
2026-05-08 07:37 50.04048 8.55946 356 ft 23 kts 250°
2026-05-08 07:37 50.03990 8.55704 357 ft 25 kts 249°
2026-05-08 07:37 50.03927 8.55442 352 ft 27 kts 250°
2026-05-08 07:37 50.03861 8.55162 352 ft 28 kts 249°
2026-05-08 07:38 50.03795 8.54887 353 ft 26 kts 249°
2026-05-08 07:38 50.03737 8.54639 347 ft 24 kts 249°
2026-05-08 07:38 50.03668 8.54361 347 ft 32 kts 249°
2026-05-08 07:38 50.03582 8.53996 336 ft 34 kts 249°
2026-05-08 07:39 50.03502 8.53663 335 ft 31 kts 250°
2026-05-08 07:39 50.03430 8.53360 334 ft 29 kts 250°
2026-05-08 07:39 50.03361 8.53072 333 ft 28 kts 249°
2026-05-08 07:39 50.03295 8.52800 334 ft 21 kts 249°
2026-05-08 07:40 50.03240 8.52633 333 ft 15 kts 218°
2026-05-08 07:40 50.03143 8.52595 332 ft 15 kts 180°
2026-05-08 07:40 50.02939 8.52599 335 ft 59 kts 179°
2026-05-08 07:40 50.02295 8.52604 331 ft 122 kts 180°
2026-05-08 07:41 50.01278 8.52614 334 ft 168 kts 180°
2026-05-08 07:41 50.00063 8.52621 780 ft 173 kts 176°
2026-05-08 07:41 49.98845 8.52696 1384 ft 177 kts 175°
2026-05-08 07:41 49.97618 8.52800 1918 ft 180 kts 175°
2026-05-08 07:42 49.96303 8.52929 2133 ft 198 kts 175°
2026-05-08 07:42 49.94869 8.53047 2329 ft 216 kts 176°
2026-05-08 07:42 49.93283 8.53165 2646 ft 235 kts 176°
2026-05-08 07:42 49.91650 8.53282 3525 ft 233 kts 177°
2026-05-08 07:43 49.90233 8.53365 4219 ft 235 kts 178°
2026-05-08 07:43 49.88595 8.53464 5059 ft 235 kts 178°
2026-05-08 07:43 49.86956 8.53569 5832 ft 237 kts 178°
2026-05-08 07:43 49.85299 8.53677 6602 ft 239 kts 178°
2026-05-08 07:44 49.83628 8.53787 7333 ft 242 kts 178°
2026-05-08 07:44 49.81940 8.53900 8073 ft 244 kts 179°
2026-05-08 07:44 49.80235 8.54014 8791 ft 247 kts 179°
2026-05-08 07:44 49.78513 8.54127 9516 ft 249 kts 180°
2026-05-08 07:45 49.76735 8.53985 9940 ft 266 kts 186°
2026-05-08 07:45 49.74826 8.53730 10249 ft 284 kts 186°
2026-05-08 07:45 49.72776 8.53447 10434 ft 307 kts 186°
2026-05-08 07:45 49.70567 8.53141 10584 ft 330 kts 186°
2026-05-08 07:46 49.68235 8.52822 10707 ft 352 kts 186°
2026-05-08 07:46 49.65684 8.52481 10864 ft 372 kts 186°
2026-05-08 07:46 49.63115 8.52141 11336 ft 380 kts 186°
2026-05-08 07:46 49.60459 8.51795 11942 ft 384 kts 186°
2026-05-08 07:47 49.57783 8.51448 12565 ft 388 kts 186°
2026-05-08 07:47 49.55073 8.51095 12995 ft 397 kts 186°
2026-05-08 07:47 49.52279 8.50728 13350 ft 406 kts 186°
2026-05-08 07:47 49.49450 8.50356 13870 ft 410 kts 186°
2026-05-08 07:48 49.46593 8.49982 14362 ft 414 kts 186°
2026-05-08 07:48 49.43722 8.49607 14867 ft 417 kts 186°
2026-05-08 07:48 49.40817 8.49229 15367 ft 419 kts 186°
2026-05-08 07:48 49.37904 8.48849 15861 ft 422 kts 186°
2026-05-08 07:49 49.34960 8.48465 16348 ft 425 kts 186°
2026-05-08 07:49 49.32002 8.48079 16844 ft 428 kts 186°
2026-05-08 07:49 49.29031 8.47691 17332 ft 431 kts 186°
2026-05-08 07:49 49.26032 8.47300 17823 ft 434 kts 187°
2026-05-08 07:50 49.23017 8.46905 18317 ft 437 kts 187°
2026-05-08 07:50 49.19978 8.46507 18740 ft 439 kts 187°
2026-05-08 07:50 49.16923 8.46108 19155 ft 442 kts 187°
2026-05-08 07:50 49.13852 8.45710 19571 ft 444 kts 187°
2026-05-08 07:51 49.10760 8.45314 19988 ft 447 kts 187°
2026-05-08 07:51 49.07657 8.44917 20396 ft 449 kts 187°
2026-05-08 07:51 49.04575 8.44146 20806 ft 449 kts 195°
2026-05-08 07:51 49.01525 8.43070 21223 ft 451 kts 195°
2026-05-08 07:52 48.98454 8.41988 21634 ft 453 kts 195°
2026-05-08 07:52 48.95380 8.40912 22028 ft 455 kts 195°
2026-05-08 07:52 48.92281 8.39835 22428 ft 457 kts 194°
2026-05-08 07:52 48.89209 8.38769 22835 ft 460 kts 194°
2026-05-08 07:53 48.86039 8.37675 23256 ft 462 kts 194°
2026-05-08 07:53 48.82943 8.36609 23664 ft 464 kts 194°
2026-05-08 07:53 48.79783 8.35521 24000 ft 466 kts 194°
2026-05-08 07:53 48.76621 8.34419 24333 ft 467 kts 195°
2026-05-08 07:54 48.73466 8.33284 24774 ft 465 kts 195°
2026-05-08 07:54 48.70330 8.32132 25212 ft 463 kts 195°
2026-05-08 07:54 48.67208 8.30975 25651 ft 461 kts 195°
2026-05-08 07:54 48.64098 8.29821 26095 ft 460 kts 195°
2026-05-08 07:55 48.60999 8.28678 26535 ft 458 kts 195°
2026-05-08 07:55 48.57904 8.27546 26984 ft 456 kts 195°
2026-05-08 07:55 48.54819 8.26427 27415 ft 455 kts 195°
2026-05-08 07:55 48.51745 8.25321 27852 ft 454 kts 195°
2026-05-08 07:56 48.48678 8.24219 28287 ft 452 kts 195°
2026-05-08 07:56 48.45620 8.23112 28722 ft 451 kts 195°
2026-05-08 07:56 48.42575 8.21999 29152 ft 450 kts 195°
2026-05-08 07:56 48.39532 8.20885 29583 ft 449 kts 195°
2026-05-08 07:57 48.36502 8.19776 30006 ft 448 kts 195°
2026-05-08 07:57 48.33474 8.18668 30358 ft 447 kts 195°
2026-05-08 07:57 48.30452 8.17565 30722 ft 446 kts 195°
2026-05-08 07:57 48.27440 8.16467 31092 ft 445 kts 195°
2026-05-08 07:58 48.24484 8.15166 31459 ft 442 kts 202°
2026-05-08 07:58 48.21685 8.13279 31807 ft 440 kts 207°
2026-05-08 07:58 48.18941 8.11240 32166 ft 440 kts 207°
2026-05-08 07:58 48.16202 8.09206 32536 ft 439 kts 207°
2026-05-08 07:59 48.13472 8.07183 32892 ft 438 kts 207°
2026-05-08 07:59 48.10743 8.05166 33260 ft 437 kts 207°
2026-05-08 07:59 48.08018 8.03155 33609 ft 436 kts 207°
2026-05-08 07:59 48.05329 8.01174 33956 ft 436 kts 206°
2026-05-08 08:00 48.02577 7.99152 34271 ft 435 kts 206°
2026-05-08 08:00 47.99889 7.97184 34531 ft 435 kts 207°
2026-05-08 08:00 47.97177 7.95199 34797 ft 435 kts 207°
2026-05-08 08:00 47.94462 7.93211 35013 ft 435 kts 207°
2026-05-08 08:01 47.91743 7.91222 35077 ft 436 kts 207°
2026-05-08 08:01 47.86300 7.87241 35074 ft 436 kts 207°
2026-05-08 08:02 47.80855 7.83275 35077 ft 435 kts 207°
2026-05-08 08:02 47.75410 7.79325 35081 ft 435 kts 207°
2026-05-08 08:03 47.69971 7.75371 35077 ft 435 kts 207°
2026-05-08 08:03 47.64536 7.71425 35077 ft 435 kts 207°
2026-05-08 08:04 47.59099 7.67492 35080 ft 435 kts 207°
2026-05-08 08:04 47.54574 7.64242 35078 ft 435 kts 207°
2026-05-08 08:05 47.49754 7.60772 35079 ft 434 kts 207°
2026-05-08 08:05 47.44329 7.56874 35076 ft 434 kts 207°
2026-05-08 08:06 47.38894 7.52986 35076 ft 433 kts 207°
2026-05-08 08:06 47.33506 7.49141 35075 ft 433 kts 207°
2026-05-08 08:07 47.28090 7.45287 35224 ft 432 kts 207°
2026-05-08 08:07 47.25387 7.43365 35464 ft 432 kts 207°
2026-05-08 08:07 47.22683 7.41439 35706 ft 432 kts 208°
2026-05-08 08:07 47.20026 7.39396 35949 ft 431 kts 210°
2026-05-08 08:08 47.17419 7.37211 36056 ft 432 kts 212°
2026-05-08 08:08 47.12285 7.32634 36093 ft 431 kts 213°
2026-05-08 08:09 47.08014 7.28836 36077 ft 432 kts 212°
2026-05-08 08:09 47.02837 7.24367 36086 ft 432 kts 212°
2026-05-08 08:10 46.97641 7.19960 36054 ft 432 kts 212°
2026-05-08 08:10 46.92443 7.15550 36082 ft 432 kts 212°
2026-05-08 08:11 46.87248 7.11134 36081 ft 432 kts 212°
2026-05-08 08:11 46.82059 7.06735 36072 ft 431 kts 212°
2026-05-08 08:12 46.76864 7.02330 36082 ft 431 kts 212°
2026-05-08 08:12 46.71673 6.97941 36079 ft 431 kts 212°
2026-05-08 08:13 46.66490 6.93572 36074 ft 431 kts 212°
2026-05-08 08:13 46.61300 6.89203 36069 ft 430 kts 212°
2026-05-08 08:13 46.58716 6.87034 35768 ft 429 kts 212°
2026-05-08 08:14 46.56130 6.84869 35245 ft 427 kts 212°
2026-05-08 08:14 46.53602 6.82756 35056 ft 425 kts 212°
2026-05-08 08:14 46.51004 6.80584 35063 ft 426 kts 212°
2026-05-08 08:15 46.45895 6.76313 35065 ft 427 kts 212°
2026-05-08 08:15 46.40744 6.72013 35060 ft 427 kts 212°
2026-05-08 08:16 46.35601 6.67734 35062 ft 426 kts 212°
2026-05-08 08:16 46.30461 6.63471 35061 ft 426 kts 212°
2026-05-08 08:17 46.25322 6.59216 35062 ft 426 kts 212°
2026-05-08 08:17 46.20174 6.54966 35059 ft 426 kts 211°
2026-05-08 08:18 46.15030 6.50717 35062 ft 426 kts 211°
2026-05-08 08:18 46.09880 6.46485 35059 ft 426 kts 211°
2026-05-08 08:19 46.04724 6.42258 35053 ft 426 kts 211°
2026-05-08 08:19 45.99580 6.38040 35054 ft 426 kts 212°
2026-05-08 08:20 45.94427 6.33825 35053 ft 425 kts 211°
2026-05-08 08:20 45.89317 6.29657 35055 ft 425 kts 211°
2026-05-08 08:21 45.84182 6.25484 35054 ft 425 kts 211°
2026-05-08 08:21 45.79037 6.21305 35052 ft 425 kts 211°
2026-05-08 08:22 45.73893 6.17130 35048 ft 425 kts 211°
2026-05-08 08:22 45.68740 6.12958 35051 ft 425 kts 211°
2026-05-08 08:23 45.63585 6.08797 35053 ft 426 kts 211°
2026-05-08 08:23 45.58423 6.04652 35055 ft 426 kts 211°
2026-05-08 08:24 45.53253 6.00504 35054 ft 427 kts 211°
2026-05-08 08:24 45.48000 5.96545 35049 ft 429 kts 204°
2026-05-08 08:25 45.42205 5.94337 35051 ft 434 kts 195°
2026-05-08 08:25 45.36351 5.92521 35044 ft 433 kts 195°
2026-05-08 08:26 45.30459 5.90676 35044 ft 434 kts 195°
2026-05-08 08:26 45.24561 5.88842 35042 ft 434 kts 195°
2026-05-08 08:27 45.18656 5.87011 35043 ft 434 kts 195°
2026-05-08 08:27 45.12750 5.85180 35043 ft 434 kts 195°
2026-05-08 08:28 45.06842 5.83349 35043 ft 435 kts 195°
2026-05-08 08:28 45.00934 5.81529 35041 ft 435 kts 195°
2026-05-08 08:29 44.95017 5.79708 35037 ft 436 kts 195°
2026-05-08 08:29 44.89087 5.77882 35038 ft 436 kts 195°
2026-05-08 08:30 44.83148 5.76062 35034 ft 437 kts 196°
2026-05-08 08:30 44.74224 5.73334 35034 ft 438 kts 196°
2026-05-08 08:31 44.68270 5.71513 35037 ft 439 kts 196°
2026-05-08 08:31 44.62336 5.69705 35032 ft 439 kts 196°
2026-05-08 08:32 44.56353 5.67904 35040 ft 440 kts 196°
2026-05-08 08:32 44.50360 5.66098 35033 ft 441 kts 196°
2026-05-08 08:33 44.44359 5.64272 35033 ft 441 kts 197°
2026-05-08 08:33 44.38364 5.62396 35029 ft 440 kts 200°
2026-05-08 08:34 44.32658 5.59428 35036 ft 437 kts 206°
2026-05-08 08:34 44.26997 5.56318 35034 ft 438 kts 206°
2026-05-08 08:35 44.21321 5.53207 35038 ft 438 kts 206°
2026-05-08 08:35 44.15643 5.50110 35037 ft 439 kts 206°
2026-05-08 08:36 44.09958 5.47021 35036 ft 439 kts 206°
2026-05-08 08:36 44.04296 5.43946 35039 ft 439 kts 206°
2026-05-08 08:37 43.98612 5.40852 35033 ft 439 kts 206°
2026-05-08 08:37 43.92914 5.37778 35036 ft 439 kts 206°
2026-05-08 08:38 43.87220 5.34702 35035 ft 439 kts 206°
2026-05-08 08:38 43.81529 5.31622 35034 ft 439 kts 207°
2026-05-08 08:39 43.75827 5.28549 35027 ft 439 kts 207°
2026-05-08 08:39 43.70133 5.25499 35027 ft 438 kts 207°
2026-05-08 08:40 43.64444 5.22451 35029 ft 438 kts 207°
2026-05-08 08:40 43.58758 5.19400 35028 ft 439 kts 207°
2026-05-08 08:41 43.53108 5.16384 35028 ft 438 kts 207°
2026-05-08 08:41 43.47418 5.13357 35029 ft 438 kts 208°
2026-05-08 08:42 43.41735 5.10330 35029 ft 438 kts 208°
2026-05-08 08:42 43.36400 5.06588 35024 ft 425 kts 221°
2026-05-08 08:43 43.31531 5.01970 35028 ft 425 kts 221°
2026-05-08 08:43 43.26665 4.97386 35032 ft 424 kts 221°
2026-05-08 08:44 43.21804 4.92829 35032 ft 423 kts 221°
2026-05-08 08:44 43.16949 4.88286 35036 ft 422 kts 221°
2026-05-08 08:45 43.12108 4.83756 35036 ft 421 kts 221°
2026-05-08 08:45 43.07278 4.79252 35043 ft 420 kts 221°
2026-05-08 08:46 43.02236 4.75118 35039 ft 424 kts 217°
2026-05-08 08:46 42.97077 4.71209 35039 ft 424 kts 217°
2026-05-08 08:47 42.91928 4.67309 35042 ft 423 kts 217°
2026-05-08 08:47 42.86784 4.63418 35042 ft 422 kts 217°
2026-05-08 08:48 42.81647 4.59536 35041 ft 422 kts 217°
2026-05-08 08:48 42.76544 4.55694 35042 ft 422 kts 217°
2026-05-08 08:49 42.71403 4.51834 35042 ft 421 kts 217°
2026-05-08 08:49 42.66274 4.47985 35043 ft 421 kts 217°
2026-05-08 08:50 42.61141 4.44139 35041 ft 421 kts 216°
2026-05-08 08:50 42.56009 4.40313 35040 ft 421 kts 216°
2026-05-08 08:51 42.50887 4.36497 35039 ft 420 kts 216°
2026-05-08 08:51 42.45763 4.32679 35040 ft 420 kts 216°
2026-05-08 08:52 42.40643 4.28867 35036 ft 420 kts 216°
2026-05-08 08:52 42.35518 4.25063 35038 ft 420 kts 216°
2026-05-08 08:53 42.30393 4.21270 35051 ft 419 kts 216°
2026-05-08 08:53 42.25308 4.17510 35035 ft 419 kts 216°
2026-05-08 08:54 42.20157 4.13714 35038 ft 419 kts 216°
2026-05-08 08:54 42.15072 4.09973 35034 ft 419 kts 215°
2026-05-08 08:55 42.09956 4.06216 35036 ft 418 kts 215°
2026-05-08 08:55 42.04845 4.02466 35031 ft 418 kts 215°
2026-05-08 08:56 41.99737 3.98729 35035 ft 418 kts 215°
2026-05-08 08:56 41.94623 3.95018 35032 ft 419 kts 213°
2026-05-08 08:57 41.89013 3.92551 35034 ft 433 kts 197°
2026-05-08 08:57 41.84069 3.91426 35037 ft 433 kts 197°
2026-05-08 08:58 41.78132 3.90080 35037 ft 432 kts 197°
2026-05-08 08:58 41.72207 3.88713 35030 ft 432 kts 197°
2026-05-08 08:59 41.66295 3.87338 35040 ft 431 kts 197°
2026-05-08 08:59 41.60390 3.85972 35041 ft 430 kts 197°
2026-05-08 09:00 41.54481 3.84621 35041 ft 430 kts 197°
2026-05-08 09:00 41.48623 3.83292 35041 ft 429 kts 197°
2026-05-08 09:01 41.42741 3.81952 35043 ft 429 kts 197°
2026-05-08 09:01 41.36872 3.80608 35039 ft 428 kts 197°
2026-05-08 09:02 41.31009 3.79270 35039 ft 427 kts 197°
2026-05-08 09:02 41.25152 3.77934 35037 ft 427 kts 197°
2026-05-08 09:03 41.19286 3.76603 35039 ft 427 kts 197°
2026-05-08 09:03 41.13559 3.74805 35040 ft 418 kts 207°
2026-05-08 09:04 41.08156 3.71989 35038 ft 417 kts 207°
2026-05-08 09:04 41.02735 3.69208 35040 ft 418 kts 207°
2026-05-08 09:05 40.97320 3.66427 35040 ft 417 kts 207°
2026-05-08 09:05 40.91904 3.63642 35039 ft 417 kts 207°
2026-05-08 09:06 40.86521 3.60888 35038 ft 417 kts 207°
2026-05-08 09:06 40.81106 3.58119 35038 ft 417 kts 207°
2026-05-08 09:07 40.75698 3.55349 35033 ft 417 kts 207°
2026-05-08 09:07 40.70283 3.52592 35036 ft 417 kts 207°
2026-05-08 09:08 40.64868 3.49839 35027 ft 416 kts 207°
2026-05-08 09:08 40.62175 3.48472 34480 ft 415 kts 206°
2026-05-08 09:08 40.59474 3.47100 33704 ft 417 kts 206°
2026-05-08 09:09 40.56755 3.45719 32841 ft 420 kts 206°
2026-05-08 09:09 40.54014 3.44329 31987 ft 423 kts 206°
2026-05-08 09:09 40.51261 3.42934 31151 ft 426 kts 206°
2026-05-08 09:09 40.48474 3.41526 30280 ft 429 kts 206°
2026-05-08 09:10 40.45620 3.40282 29295 ft 437 kts 199°
2026-05-08 09:10 40.42634 3.39578 28285 ft 446 kts 191°
2026-05-08 09:10 40.39500 3.39470 27257 ft 456 kts 182°
2026-05-08 09:10 40.36316 3.39662 26208 ft 460 kts 182°
2026-05-08 09:11 40.33109 3.39853 25176 ft 463 kts 181°
2026-05-08 09:11 40.29895 3.40049 24590 ft 457 kts 181°
2026-05-08 09:11 40.26726 3.40242 23795 ft 456 kts 181°
2026-05-08 09:11 40.23559 3.40422 22947 ft 453 kts 181°
2026-05-08 09:12 40.20427 3.40595 22141 ft 449 kts 181°
2026-05-08 09:12 40.17315 3.40768 21375 ft 445 kts 181°
2026-05-08 09:12 40.14236 3.40937 20640 ft 441 kts 181°
2026-05-08 09:12 40.11187 3.41104 19927 ft 437 kts 181°
2026-05-08 09:13 40.08170 3.41273 19233 ft 433 kts 181°
2026-05-08 09:13 40.05173 3.41443 18560 ft 429 kts 182°
2026-05-08 09:13 40.02204 3.41607 17831 ft 425 kts 181°
2026-05-08 09:13 39.99261 3.41774 17097 ft 421 kts 181°
2026-05-08 09:14 39.96342 3.41943 16386 ft 417 kts 181°
2026-05-08 09:14 39.93454 3.42111 15685 ft 414 kts 180°
2026-05-08 09:14 39.90588 3.42272 14995 ft 410 kts 180°
2026-05-08 09:14 39.87747 3.42432 14344 ft 407 kts 180°
2026-05-08 09:15 39.84925 3.42591 13646 ft 404 kts 179°
2026-05-08 09:15 39.82127 3.42746 12942 ft 401 kts 179°
2026-05-08 09:15 39.79357 3.42900 12294 ft 396 kts 179°
2026-05-08 09:15 39.76626 3.43052 11674 ft 391 kts 179°
2026-05-08 09:16 39.73967 3.42843 11436 ft 374 kts 192°
2026-05-08 09:16 39.71580 3.41857 11303 ft 356 kts 206°
2026-05-08 09:16 39.69508 3.40180 11177 ft 339 kts 220°
2026-05-08 09:16 39.67918 3.38070 11056 ft 325 kts 233°
2026-05-08 09:17 39.66763 3.35625 10937 ft 312 kts 244°
2026-05-08 09:17 39.65823 3.33154 10809 ft 300 kts 243°
2026-05-08 09:17 39.64906 3.30770 10684 ft 290 kts 243°
2026-05-08 09:17 39.64011 3.28454 10429 ft 285 kts 242°
2026-05-08 09:18 39.63125 3.26162 10110 ft 284 kts 242°
2026-05-08 09:18 39.62238 3.23866 9723 ft 284 kts 242°
2026-05-08 09:18 39.61353 3.21582 9326 ft 284 kts 242°
2026-05-08 09:18 39.60464 3.19289 8997 ft 284 kts 242°
2026-05-08 09:19 39.59575 3.16998 8657 ft 284 kts 242°
2026-05-08 09:19 39.58773 3.14933 8363 ft 284 kts 242°
2026-05-08 09:19 39.57919 3.12738 8040 ft 284 kts 242°
2026-05-08 09:19 39.57033 3.10456 7704 ft 284 kts 242°
2026-05-08 09:20 39.56145 3.08168 7384 ft 284 kts 241°
2026-05-08 09:20 39.55257 3.05883 7067 ft 284 kts 242°
2026-05-08 09:20 39.54374 3.03604 6780 ft 280 kts 241°
2026-05-08 09:20 39.53512 3.01383 6569 ft 273 kts 241°
2026-05-08 09:21 39.52661 2.99192 6221 ft 272 kts 242°
2026-05-08 09:21 39.51812 2.97016 5861 ft 270 kts 240°
2026-05-08 09:22 39.46747 2.84060 3702 ft 267 kts 240°
2026-05-08 09:23 39.45920 2.81951 3393 ft 264 kts 240°
2026-05-08 09:23 39.45110 2.79877 3267 ft 253 kts 241°
2026-05-08 09:23 39.44330 2.77885 3130 ft 245 kts 240°
2026-05-08 09:23 39.43674 2.75843 3048 ft 247 kts 255°
2026-05-08 09:24 39.43506 2.73634 2934 ft 246 kts 269°
2026-05-08 09:24 39.43528 2.71438 2822 ft 241 kts 272°
2026-05-08 09:24 39.43524 2.69290 2684 ft 237 kts 268°
2026-05-08 09:24 39.43291 2.67211 2596 ft 231 kts 253°
2026-05-08 09:25 39.42881 2.65231 2453 ft 225 kts 251°
2026-05-08 09:25 39.42447 2.63321 2345 ft 215 kts 252°
2026-05-08 09:25 39.42075 2.61507 2325 ft 205 kts 255°
2026-05-08 09:25 39.41754 2.59745 2415 ft 195 kts 256°
2026-05-08 09:26 39.41477 2.58099 2637 ft 182 kts 256°
2026-05-08 09:26 39.41332 2.56449 2604 ft 190 kts 279°
2026-05-08 09:26 39.41888 2.54945 2677 ft 186 kts 321°
2026-05-08 09:26 39.43025 2.54302 2702 ft 180 kts
2026-05-08 09:27 39.44275 2.54502 2718 ft 184 kts 21°
2026-05-08 09:27 39.45470 2.55041 2791 ft 178 kts 25°
2026-05-08 09:27 39.46630 2.55506 2766 ft 177 kts 19°
2026-05-08 09:27 39.47709 2.56139 2644 ft 167 kts 49°
2026-05-08 09:28 39.48334 2.57361 2492 ft 161 kts 62°
2026-05-08 09:28 39.48875 2.58530 2423 ft 142 kts 64°
2026-05-08 09:28 39.49357 2.59594 2213 ft 133 kts 62°
2026-05-08 09:28 39.49818 2.60606 1989 ft 128 kts 63°
2026-05-08 09:29 39.50264 2.61582 1796 ft 124 kts 62°
2026-05-08 09:29 39.50729 2.62514 1598 ft 124 kts 61°
2026-05-08 09:29 39.51197 2.63458 1415 ft 125 kts 61°
2026-05-08 09:29 39.51627 2.64444 1251 ft 127 kts 62°
2026-05-08 09:30 39.52070 2.65438 1146 ft 127 kts 61°
2026-05-08 09:30 39.52548 2.66426 1015 ft 131 kts 62°
2026-05-08 09:30 39.53030 2.67454 819 ft 135 kts 60°
2026-05-08 09:30 39.53515 2.68519 577 ft 139 kts 60°
2026-05-08 09:31 39.54014 2.69577 334 ft 134 kts 56°
2026-05-08 09:31 39.54480 2.70574 162 ft 125 kts 57°
2026-05-08 09:31 39.54923 2.71505 48 ft 114 kts 59°
2026-05-08 09:31 39.55255 2.72208 38 ft 65 kts 58°
2026-05-08 09:32 39.55410 2.72536 37 ft 31 kts 59°
2026-05-08 09:32 39.55488 2.72775 38 ft 28 kts 79°
2026-05-08 09:32 39.55498 2.73003 38 ft 18 kts 88°
2026-05-08 09:32 39.55502 2.73140 38 ft 13 kts 84°
2026-05-08 09:33 39.55530 2.73237 38 ft 10 kts 56°
2026-05-08 09:33 39.55570 2.73320 38 ft 14 kts 59°
2026-05-08 09:33 39.55623 2.73443 37 ft 15 kts 75°
2026-05-08 09:33 39.55565 2.73542 38 ft 14 kts 147°
2026-05-08 09:34 39.55491 2.73541 37 ft 11 kts 229°
2026-05-08 09:34 39.55448 2.73462 38 ft 10 kts 223°
2026-05-08 09:34 39.55387 2.73472 38 ft 11 kts 152°
2026-05-08 09:34 39.55301 2.73538 38 ft 16 kts 149°
2026-05-08 09:35 39.55208 2.73611 36 ft 14 kts 149°
2026-05-08 09:35 39.55140 2.73605 38 ft 10 kts 227°
2026-05-08 09:35 39.55102 2.73532 38 ft 9 kts 237°
2026-05-08 09:35 39.55062 2.73480 38 ft 8 kts 191°
2026-05-08 09:36 39.55029 2.73486 37 ft 2 kts 166°
2026-05-08 09:36 39.55023 2.73488 38 ft 0 kts 166°
2026-05-08 09:36 39.55022 2.73488 38 ft 0 kts 165°